Regional Weather Roundup
Issued by NWS Midland/Odessa, TX

Skip options and go directly to product.
Home | Oldest Version | Previous Version | Current Version | All | Text Only | Save Text | Print | Product List | Glossary Off

Skip product version selection by date and time.   

898
ASUS44 KMAF 231210
RWRMAF
MIDLAND AREA WEATHER ROUNDUP
NATIONAL WEATHER SERVICE MIDLAND TX
700 AM CDT TUE SEP 23 2014

...IN SOUTHWEST TEXAS AND SOUTHEAST NEW MEXICO...

CITY           SKY/WX    TMP DP  RH WIND       PRES   REMARKS
ALPINE         CLOUDY    65  52  61 S13       30.27S
ANDREWS        FAIR      64  63  97 CALM      30.19S FOG
ARTESIA        NOT AVBL
BIG SPRING     CLOUDY    72  66  83 SE9       30.19S
CARLSBAD       PTCLDY    63  50  63 CALM      30.15S HAZE
DRYDEN           N/A     72  62  71 NE3       30.12S
FORT STOCKTON  CLOUDY    64  58  80 SE6       30.15R
GUAD PASS      MOCLDY    63  47  55 S5          N/A
HOBBS          PTCLDY    63  63 100 CALM      30.21  FOG
MARFA          CLOUDY    57  55  94 CALM      30.26S
MIDLAND AIRPK  NOT AVBL
MIDLAND INTL   MOCLDY    66  62  87 SE6       30.17R
ODESSA         MOCLDY    66  61  84 SE7       30.18R
PECOS          CLOUDY    64  60  88 NE6       30.13R
PRESIDIO       FAIR      72  55  54 NE5       30.13S
SEMINOLE       CLOUDY    64  64  97 CALM      30.21R
SNYDER         MOCLDY    67  59  74 SE9       30.19S
WINK           CLOUDY    67  60  78 E6        30.13S
$$
...OTHER STATIONS IN TEXAS...

CITY           SKY/WX    TMP DP  RH WIND       PRES   REMARKS
ABILENE        MOCLDY    65  53  65 SE6       30.18R
AMARILLO       PTCLDY    61  55  81 S13       30.19S
AUSTIN         PTCLDY    66  60  81 NE7       30.12R
BROWNSVILLE    PTCLDY    73  71  93 NW5       30.01R
CORPUS CHRISTI CLOUDY    76  73  91 N8        30.03S
DALLAS FTW     MOCLDY    64  53  67 E7        30.18R
DEL RIO        CLOUDY    75  64  68 E9        30.07S
EL PASO        PTCLDY    66  64  93 S6        30.15F
HOUSTON INT    PTCLDY    64  55  72 NE7       30.11R
LUBBOCK        MOCLDY    62  58  86 SE6       30.20S
SAN ANGELO     CLOUDY    68  66  93 NE5       30.16R
SAN ANTONIO    MOCLDY    73  65  75 NE7       30.11S
WACO           CLEAR     57  54  89 N5        30.16R
WICHITA FALLS  NOT AVBL
$$
...OTHER LOCATIONS IN NEW MEXICO...

CITY           SKY/WX    TMP DP  RH WIND       PRES   REMARKS
ALAMAGORDO     CLOUDY    66  64  94 N5        30.20R
ALBUQUERQUE    PTCLDY    61  56  83 CALM      30.26S
CANNON AFB     PTCLDY    61  60  96 S8        30.22F FOG
CLOVIS           N/A     61  59  94 S9        30.24F
HOLLOMAN AFB   NOT AVBL
ROSWELL        CLOUDY    66  63  90 S7        30.17F FOG
RUIDOSO        FOG       54  54 100 S5        30.34F VSB 1/2
SANTA FE       MOCLDY    59  57  93 SW6       30.30R
TRUTH OR CONSE PTCLDY    60  59  96 SE5       30.21R
TUCUMCARI      CLOUDY    64  60  87 SW7       30.18S
$$

USA.gov is the U.S. government's official web portal to all federal, state and local government web resources and services.